Regional Weather Roundup
Issued by NWS

Home | Current Version | Previous Version | Graphics & Text | Print | Product List | Glossary On
Versions: 1 2 3 4 5 6 7 8 9 10 11 12 13 14 15 16 17 18 19 20 21 22 23 24 25 26 27 28 29 30 31 32 33 34 35 36 37 38 39 40 41 42 43 44 45 46 47 48 49 50
000
ASUS45 KBOI 261110
RWRID
WEATHER ROUNDUP FOR IDAHO
NATIONAL WEATHER SERVICE BOISE ID
500 AM MDT TUE AUG 26 2014

NOTE: "FAIR" INDICATES FEW OR NO CLOUDS BELOW 12000 FEET
WITH NO SIGNIFICANT WEATHER AND/OR OBSTRUCTIONS TO VISIBILITY

IDZ012-014-261200-
SOUTHWEST IDAHO


CITY           SKY/WX    TMP DP  RH WIND       PRES   REMARKS
BOISE          CLEAR     57  48  72 SE6       30.07R
CALDWELL       CLEAR     52  39  62 SE3       30.08R
MOUNTAIN HOME  CLEAR     51  45  78 CALM      30.08R
$$

IDZ016-017-261200-
SOUTHCENTRAL IDAHO


CITY           SKY/WX    TMP DP  RH WIND       PRES   REMARKS
BURLEY         PTCLDY    51  47  86 SW3       30.13R
JEROME         PTCLDY    51  48  89 E7        30.12S
TWIN FALLS     CLEAR     54  48  80 S9        30.12R
$$

IDZ019>023-261200-
SOUTHEAST IDAHO


CITY           SKY/WX    TMP DP  RH WIND       PRES   REMARKS
IDAHO FALLS    CLEAR     45  44  97 N5        30.15R
POCATELLO      PTCLDY    47  47 100 E3        30.15R
REXBURG        PTCLDY    44  42  93 NE3       30.16R
$$

IDZ006-010-011-018-031-032-261200-
CENTRAL IDAHO MOUNTAINS


CITY           SKY/WX    TMP DP  RH WIND       PRES   REMARKS
MCCALL         CLEAR     44  40  85 NE3       30.15S
HAILEY         CLEAR     48  45  87 NW7       30.20R
STANLEY          N/A     39  38  96 CALM      30.25S
SALMON         CLEAR     46  46 100 CALM      30.16R
CHALLIS        PTCLDY    45  43  93 CALM      30.19R
$$

IDZ002-004-006-007-026-261200-
NORTHERN IDAHO


CITY           SKY/WX    TMP DP  RH WIND       PRES   REMARKS
LEWISTON       CLEAR     60  45  57 E5        30.04R
LOWELL           N/A     52  49  89 CALM      30.12R
COEUR D`ALENE  CLEAR     50  41  71 NE5       30.06R
MULLAN PASS    CLEAR     48  37  65 NW5       30.18S
$$


USA.gov is the U.S. government's official web portal to all federal, state and local government web resources and services.